Weather History for KSTJ - October, 2013

Change the Weather History Date:

Friday, October 4, 2013

  Actual Average Record
Temperature  
Mean Temperature 74 °F 69 °F  
Max Temperature 89 °F 81 °F 94 °F (1938)
Min Temperature 59 °F 56 °F 29 °F (1999)
Degree Days  
Heating Degree Days 0 1  
Month to date heating degree days 0 8  
Since 1 July heating degree days 38 13  
Cooling Degree Days 9 5  
Month to date cooling degree days 25 60  
Year to date cooling degree days 1284 1137  
Growing Degree Days 26 (Base 50)    
Moisture  
Dew Point 66 °F    
Average Humidity 72    
Maximum Humidity 100    
Minimum Humidity 44    
Precipitation  
Precipitation 0.84 in 0.11 in 2.50 in (1991)
Month to date precipitation 1.48 1.39  
Year to date precipitation 24.70 27.69  
Sea Level Pressure  
Sea Level Pressure 29.78 in    
Wind  
Wind Speed 11 mph (South)    
Max Wind Speed 46 mph    
Max Gust Speed 61 mph    
Visibility 9 miles    
Events Fog , Rain , Thunderstorm    
T = Trace of Precipitation, MM = Missing Value Source: NWS Daily Summary

Daily Weather History Graph

Daily Weather History Graph

Search for Another Location

Airport or City:

Trip Planner

Search our weather history database for the weather conditions in past years. The results will help you decide how hot, cold, wet, or windy it might be!

Date:

Astronomy

Oct. 04, 2013 Rise Set
Actual Time 7:19 AM CDT 6:56 PM CDT
Civil Twilight 6:52 AM CDT 7:23 PM CDT
Nautical Twilight 6:20 AM CDT 7:54 PM CDT
Astronomical Twilight 5:49 AM CDT 8:26 PM CDT
Moon 6:55 AM CDT (10/4) 6:39 PM CDT (10/4)
Length of Visible Light 12h 31m
Length of Day
11h 37m
Waning Crescent, 0% of the Moon is Illuminated
Oct 4
Waning Crescent
Oct 4
New
Oct 11
First Quarter
Oct 18
Full
Oct 26
Last Quarter

Hourly Weather History & Observations

Time (CDT) Temp. Heat Index Dew Point Humidity Pressure Visibility Wind Dir Wind Speed Gust Speed Precip Events Conditions
12:53 AM 73.9 °F - 66.9 °F 79% 29.78 in 10.0 mi South 11.5 mph - N/A   Clear
1:53 AM 73.0 °F - 66.0 °F 79% 29.77 in 10.0 mi South 10.4 mph - N/A   Clear
2:53 AM 72.0 °F - 66.0 °F 81% 29.77 in 10.0 mi South 9.2 mph - N/A   Clear
3:53 AM 71.1 °F - 66.0 °F 84% 29.76 in 10.0 mi SSE 10.4 mph - N/A   Clear
4:53 AM 71.1 °F - 66.9 °F 87% 29.75 in 10.0 mi SSE 12.7 mph - N/A   Clear
5:44 AM 71.6 °F - 66.2 °F 83% 29.78 in 10.0 mi South 9.2 mph - N/A   Mostly Cloudy
5:53 AM 72.0 °F - 66.9 °F 84% 29.75 in 10.0 mi South 11.5 mph - N/A   Mostly Cloudy
6:53 AM 73.0 °F - 68.0 °F 84% 29.77 in 10.0 mi South 10.4 mph - N/A   Overcast
6:56 AM 73.4 °F - 68.0 °F 83% 29.79 in 10.0 mi South 10.4 mph - N/A   Overcast
7:53 AM 73.9 °F - 68.0 °F 82% 29.78 in 10.0 mi South 8.1 mph - N/A Thunderstorm Overcast
8:12 AM 73.4 °F - 68.0 °F 83% 29.81 in 10.0 mi South 4.6 mph - N/A   Overcast
8:53 AM 73.0 °F - 68.0 °F 84% 29.78 in 10.0 mi SE 8.1 mph - N/A   Overcast
9:53 AM 73.9 °F - 68.0 °F 82% 29.78 in 10.0 mi South 10.4 mph - 0.00 in   Overcast
10:53 AM 75.9 °F - 69.1 °F 79% 29.77 in 10.0 mi SSE 13.8 mph - N/A   Overcast
11:41 AM 78.8 °F - 69.8 °F 74% 29.79 in 10.0 mi South 9.2 mph - N/A   Overcast
11:53 AM 78.1 °F - 69.1 °F 74% 29.76 in 10.0 mi South 16.1 mph - N/A   Overcast
12:42 PM 80.6 °F 83.9 °F 69.8 °F 70% 29.78 in 10.0 mi South 13.8 mph 25.3 mph N/A   Mostly Cloudy
12:53 PM 82.0 °F 85.5 °F 69.1 °F 65% 29.75 in 10.0 mi South 13.8 mph 20.7 mph N/A   Mostly Cloudy
1:53 PM 84.9 °F 88.8 °F 69.1 °F 59% 29.72 in 10.0 mi South 17.3 mph 25.3 mph N/A   Clear
2:53 PM 86.0 °F 88.8 °F 66.9 °F 53% 29.69 in 10.0 mi South 17.3 mph 25.3 mph N/A   Partly Cloudy
3:53 PM 88.0 °F 91.4 °F 68.0 °F 51% 29.68 in 10.0 mi South 16.1 mph 25.3 mph N/A   Clear
4:53 PM 89.1 °F 91.0 °F 64.9 °F 45% 29.68 in 10.0 mi South 13.8 mph 24.2 mph N/A   Clear
5:53 PM 84.0 °F 85.4 °F 64.0 °F 51% 29.70 in 10.0 mi South 13.8 mph - N/A   Clear
6:53 PM 82.0 °F 83.4 °F 64.0 °F 54% 29.73 in 10.0 mi South 11.5 mph - N/A   Clear
7:53 PM 80.1 °F 81.9 °F 64.9 °F 60% 29.74 in 10.0 mi SW 9.2 mph - N/A   Mostly Cloudy
8:32 PM 75.2 °F - 64.4 °F 69% 29.79 in 9.0 mi SW 10.4 mph - 0.01 in Rain , Thunderstorm Light Thunderstorms and Rain
8:53 PM 72.0 °F - 66.9 °F 84% 29.78 in 6.0 mi SSW 9.2 mph - 0.05 in Rain , Thunderstorm Rain
9:23 PM 69.8 °F - 66.2 °F 88% 29.83 in 0.8 mi WSW 46.0 mph 61.0 mph 0.31 in Rain , Thunderstorm Heavy Thunderstorms and Rain
9:30 PM 66.2 °F - 64.4 °F 94% 29.85 in 0.2 mi Variable 6.9 mph 61.0 mph 0.74 in Fog , Rain , Thunderstorm Heavy Thunderstorms and Rain
9:36 PM 66.2 °F - 66.2 °F 100% 29.85 in 1.0 mi Calm Calm - 0.76 in Rain , Thunderstorm Light Thunderstorms and Rain
9:40 PM 66.2 °F - 66.2 °F 100% 29.85 in 4.0 mi Calm Calm - 0.76 in Rain , Thunderstorm Light Thunderstorms and Rain
9:53 PM 66.9 °F - 66.0 °F 97% 29.83 in 6.0 mi Calm Calm - 0.77 in Rain , Thunderstorm Light Rain
10:02 PM 68.0 °F - 66.2 °F 94% 29.85 in 10.0 mi Calm Calm - 0.00 in   Mostly Cloudy
10:53 PM 68.0 °F - 66.0 °F 93% 29.85 in 10.0 mi SSW 5.8 mph - 0.00 in   Overcast
11:18 PM 68.0 °F - 66.2 °F 94% 29.88 in 6.0 mi WSW 5.8 mph - 0.02 in Rain , Thunderstorm Light Rain
11:44 PM 64.4 °F - 57.2 °F 77% 29.91 in 10.0 mi West 10.4 mph - 0.02 in   Mostly Cloudy
11:53 PM 63.0 °F - 59.0 °F 87% 29.89 in 10.0 mi West 10.4 mph - 0.02 in   Mostly Cloudy